Location: Grieser Field
(39.7333°N, 81.7975°W)
Time: 09:14:50
(UTC-04:00)

MOS 1-B - Visible Passes

Search period start: 25 August 2016 00:00
Search period end: 04 September 2016 00:00
Orbit: 906 x 913 km, 99.2° (Epoch: 24 August)

Date Brightness Start Highest point End Pass type
(mag) Time Alt. Az. Time Alt. Az. Time Alt. Az.
25 Aug 6.5 03:10:52 10° NE 03:14:28 17° E 03:15:57 15° ESE visible
25 Aug 4.3 04:51:02 10° N 04:56:47 66° WNW 04:59:12 35° SW visible
26 Aug 6.3 03:16:01 10° NE 03:20:00 19° E 03:21:24 17° ESE visible
26 Aug 4.4 04:56:31 10° N 05:02:13 59° WNW 05:04:39 34° SW visible
27 Aug 6.2 03:21:14 10° NE 03:25:30 21° E 03:26:51 19° ESE visible
27 Aug 4.5 05:02:02 10° N 05:07:38 53° WNW 05:10:06 32° SW visible
28 Aug 6.1 03:26:29 10° NE 03:31:01 23° E 03:32:19 22° ESE visible
28 Aug 4.6 05:07:32 10° N 05:13:05 48° WNW 05:15:33 30° SW visible
29 Aug 5.9 03:31:45 10° NE 03:36:31 26° E 03:37:45 24° ESE visible
29 Aug 4.8 05:13:04 10° N 05:18:30 43° WNW 05:21:00 28° WSW visible
30 Aug 5.8 03:37:04 10° NE 03:42:01 29° E 03:43:13 27° ESE visible
30 Aug 4.9 05:18:35 10° N 05:23:55 39° WNW 05:26:27 26° WSW visible
31 Aug 5.6 03:42:23 10° NE 03:47:31 32° E 03:48:40 30° ESE visible
31 Aug 5.0 05:24:08 10° N 05:29:20 35° WNW 05:31:55 24° WSW visible
01 Sep 5.5 03:47:43 10° NNE 03:53:01 36° E 03:54:07 33° ESE visible
01 Sep 5.2 05:29:41 10° N 05:34:44 32° WNW 05:37:22 22° WSW visible
02 Sep 5.3 03:53:05 10° NNE 03:58:30 40° E 03:59:34 37° SE visible
02 Sep 5.3 05:35:15 10° N 05:40:09 29° WNW 05:42:49 20° WSW visible
03 Sep 5.1 03:58:28 10° NNE 04:03:58 44° E 04:05:01 40° SE visible
03 Sep 5.4 05:40:50 10° N 05:45:33 27° WNW 05:48:16 19° WSW visible
